Flag for Canada Weather past 2 weeks in Trois-Rivieres, Quebec, Canada

Now
63 °F

Mild.


Feels Like: 63 °F
Forecast: N/A
Wind: 5 mph from Northwest

Location: Trois Rivieres

Current Time: Aug 1, 2015 at 7:28:44 PM

Latest Report: Aug 1, 2015 at 7:00 PM


Visibility: N/A

Pressure: 29.67 "Hg

Humidity: 93%

Dew point: 61 °F

Location of Trois-RivieresLocation

Historic Weather in Trois-Rivieres — Graph

°F

Trois-Rivieres temperature yesterday

Maximum temperature yesterday: 78 °F (at 6:00 PM)
Minimum temperature yesterday: 67 °F (at 11:00 PM)
Average temperature yesterday: 72 °F

Past Weeks' High & Low Weather Summary

 TemperatureHumidityPressure
High85 °F (Jul 29, 5:00 PM)100% (Jul 18, 5:00 AM)30.01 "Hg (Jul 18, 5:00 AM)
Low58 °F (Jul 25, 5:00 AM)53% (Jul 23, 4:00 PM)29.48 "Hg (Jul 21, 3:00 PM)
Average69 °F83%29.77 "Hg
* Reported Jul 17 6:00 PM — Aug 1 6:00 PM, Trois-Rivieres, Weather by CustomWeather, © 2015

Note: Actual official high and low records may vary slightly from our data, if they occured in-between our weather recording intervals... More about our weather records

Advertising

Trois-Rivieres weather history for previous 24 hours

 ConditionsComfort  
Time TempWeatherWind HumidityBarometerVisibility
6:00 PM
Sat, Aug 1
74 °FMild.13 mph64%29.65 "HgN/A
5:00 PM76 °FMild.2 mph54%29.65 "HgN/A
4:00 PM74 °FMild.5 mph54%29.65 "HgN/A
3:00 PM71 °FMild.10 mph65%29.65 "HgN/A
2:00 PM69 °FMild.6 mph79%29.65 "HgN/A
1:00 PM65 °FMild.6 mph85%29.66 "HgN/A
12:00 PM69 °FMild.15 mph74%29.64 "HgN/A
11:00 AM67 °FMild.10 mph81%29.65 "HgN/A
10:00 AM66 °FMild.9 mph84%29.65 "HgN/A
9:00 AM65 °FMild.6 mph84%29.65 "HgN/A
8:00 AM64 °FMild.6 mph90%29.65 "HgN/A
7:00 AM63 °FMild.8 mph92%29.65 "HgN/A
6:00 AM63 °FMild.8 mph95%29.64 "HgN/A
5:00 AM63 °FMild.8 mph95%29.64 "HgN/A
4:00 AM62 °FMild.2 mph92%29.64 "HgN/A
3:00 AM63 °FMild.2 mph91%29.65 "HgN/A
2:00 AM64 °FMild.2 mph93%29.64 "HgN/A
1:00 AM67 °FMild.13 mph91%29.63 "HgN/A
12:00 AM67 °FMild.14 mph92%29.65 "HgN/A
11:00 PM
Fri, Jul 31
67 °FMild.7 mph86%29.68 "HgN/A
10:00 PM68 °FMild.9 mph88%29.67 "HgN/A
9:00 PM71 °FMild.12 mph75%29.67 "HgN/A
8:00 PM75 °FMild.13 mph70%29.64 "HgN/A
7:00 PM77 °FMild.15 mph64%29.63 "HgN/A
Weather by CustomWeather, © 2015

See weather overviewHow to use our weather pages